LLM299 USTR-USHH

Flight info

Callsign LLM299
Flight time 0h 48m
Altitude 33000
Route LAKED L165 LUGIK A925 PETUN
Aircraft A320/M-SDE3FGHIRWY/LB1

Departure

Time 2026-04-19 07:23
Airport Roshchino International Airport (USTR)

Arrival

Time 2026-04-19 08:12
Airport Khanty Mansiysk Airport (USHH)
Time Latitude Longitude Altitude Speed Heading
2026-04-19 06:53 57.18135 65.34695 313 ft 0 kts 54°
2026-04-19 06:58 57.18135 65.34694 340 ft 0 kts 54°
2026-04-19 07:09 57.18129 65.34678 336 ft 4 kts 53°
2026-04-19 07:10 57.18112 65.34639 337 ft 4 kts 54°
2026-04-19 07:10 57.18099 65.34600 337 ft 4 kts 80°
2026-04-19 07:10 57.18103 65.34556 338 ft 4 kts 125°
2026-04-19 07:10 57.18120 65.34519 335 ft 3 kts 136°
2026-04-19 07:11 57.18124 65.34513 336 ft 2 kts 135°
2026-04-19 07:13 57.18107 65.34545 337 ft 7 kts 134°
2026-04-19 07:13 57.18058 65.34637 336 ft 12 kts 135°
2026-04-19 07:14 57.18024 65.34693 339 ft 9 kts 153°
2026-04-19 07:14 57.17964 65.34627 340 ft 12 kts 224°
2026-04-19 07:14 57.17900 65.34510 351 ft 10 kts 225°
2026-04-19 07:14 57.17902 65.34375 348 ft 10 kts 312°
2026-04-19 07:15 57.17941 65.34302 342 ft 14 kts 315°
2026-04-19 07:15 57.18020 65.34157 336 ft 18 kts 315°
2026-04-19 07:15 57.18241 65.33746 336 ft 26 kts 315°
2026-04-19 07:16 57.18371 65.33505 338 ft 28 kts 314°
2026-04-19 07:16 57.18465 65.33328 337 ft 10 kts 314°
2026-04-19 07:16 57.18479 65.33178 334 ft 15 kts 269°
2026-04-19 07:16 57.18476 65.32961 332 ft 19 kts 268°
2026-04-19 07:17 57.18471 65.32696 326 ft 23 kts 268°
2026-04-19 07:17 57.18466 65.32383 328 ft 25 kts 268°
2026-04-19 07:17 57.18460 65.32072 337 ft 23 kts 268°
2026-04-19 07:17 57.18456 65.31847 349 ft 10 kts 268°
2026-04-19 07:18 57.18447 65.31748 348 ft 8 kts 244°
2026-04-19 07:18 57.18403 65.31653 350 ft 13 kts 227°
2026-04-19 07:18 57.18325 65.31496 359 ft 20 kts 227°
2026-04-19 07:18 57.18214 65.31273 361 ft 27 kts 227°
2026-04-19 07:19 57.18071 65.30984 368 ft 34 kts 227°
2026-04-19 07:19 57.17916 65.30669 374 ft 32 kts 227°
2026-04-19 07:19 57.17773 65.30377 379 ft 29 kts 227°
2026-04-19 07:19 57.17641 65.30111 382 ft 27 kts 228°
2026-04-19 07:20 57.17521 65.29865 384 ft 25 kts 227°
2026-04-19 07:20 57.17409 65.29641 386 ft 23 kts 227°
2026-04-19 07:20 57.17303 65.29426 387 ft 22 kts 227°
2026-04-19 07:20 57.17200 65.29217 388 ft 22 kts 228°
2026-04-19 07:21 57.17099 65.29011 387 ft 23 kts 227°
2026-04-19 07:21 57.16985 65.28782 386 ft 25 kts 227°
2026-04-19 07:21 57.16875 65.28558 384 ft 17 kts 229°
2026-04-19 07:21 57.16861 65.28431 384 ft 13 kts 290°
2026-04-19 07:22 57.16893 65.28249 382 ft 16 kts 288°
2026-04-19 07:22 57.16937 65.28159 380 ft 8 kts 11°
2026-04-19 07:22 57.16963 65.28196 381 ft 0 kts 48°
2026-04-19 07:23 57.17101 65.28477 385 ft 63 kts 47°
2026-04-19 07:23 57.17532 65.29347 386 ft 118 kts 47°
2026-04-19 07:23 57.18182 65.30662 536 ft 146 kts 49°
2026-04-19 07:23 57.18852 65.32035 1234 ft 144 kts 50°
2026-04-19 07:24 57.19529 65.33414 1898 ft 145 kts 51°
2026-04-19 07:24 57.20238 65.34858 2239 ft 162 kts 51°
2026-04-19 07:24 57.21043 65.36508 2509 ft 183 kts 50°
2026-04-19 07:24 57.21942 65.38359 2782 ft 205 kts 48°
2026-04-19 07:25 57.22956 65.40411 3021 ft 229 kts 47°
2026-04-19 07:25 57.24090 65.42695 3368 ft 253 kts 46°
2026-04-19 07:25 57.25322 65.45178 3929 ft 270 kts 46°
2026-04-19 07:25 57.26761 65.47414 4715 ft 273 kts 22°
2026-04-19 07:26 57.28592 65.48236 5544 ft 271 kts 360°
2026-04-19 07:26 57.30483 65.48245 6379 ft 274 kts 352°
2026-04-19 07:26 57.32396 65.47990 7174 ft 277 kts 351°
2026-04-19 07:26 57.34329 65.47719 8014 ft 280 kts 351°
2026-04-19 07:27 57.36286 65.47522 8866 ft 283 kts 353°
2026-04-19 07:27 57.38262 65.47413 9714 ft 286 kts 354°
2026-04-19 07:27 57.40264 65.47372 10447 ft 292 kts 355°
2026-04-19 07:27 57.42378 65.47363 10653 ft 316 kts 355°
2026-04-19 07:28 57.44628 65.47383 11068 ft 329 kts 356°
2026-04-19 07:28 57.46934 65.47425 11726 ft 334 kts 356°
2026-04-19 07:28 57.49267 65.47475 12442 ft 337 kts 356°
2026-04-19 07:28 57.51625 65.47525 13164 ft 340 kts 356°
2026-04-19 07:29 57.54001 65.47572 13854 ft 344 kts 356°
2026-04-19 07:29 57.56404 65.47613 14471 ft 347 kts 356°
2026-04-19 07:29 57.58833 65.47649 15073 ft 350 kts 356°
2026-04-19 07:29 57.61282 65.47770 15665 ft 356 kts
2026-04-19 07:30 57.63747 65.48546 16259 ft 362 kts
2026-04-19 07:30 57.66230 65.49480 16852 ft 365 kts
2026-04-19 07:30 57.68734 65.50420 17450 ft 369 kts
2026-04-19 07:30 57.71264 65.51366 18041 ft 372 kts
2026-04-19 07:31 57.73818 65.52319 18608 ft 376 kts
2026-04-19 07:31 57.76393 65.53276 19153 ft 379 kts
2026-04-19 07:31 57.78991 65.54244 19709 ft 382 kts
2026-04-19 07:31 57.81608 65.55222 20325 ft 384 kts
2026-04-19 07:32 57.84238 65.56206 20885 ft 387 kts
2026-04-19 07:32 57.86887 65.57198 21455 ft 389 kts
2026-04-19 07:32 57.89552 65.58200 21995 ft 392 kts
2026-04-19 07:32 57.92233 65.59207 22517 ft 395 kts
2026-04-19 07:33 57.94939 65.60226 23054 ft 398 kts
2026-04-19 07:33 57.97664 65.61251 23568 ft 401 kts
2026-04-19 07:33 58.00424 65.61897 24009 ft 400 kts 359°
2026-04-19 07:33 58.03196 65.62383 24440 ft 402 kts 359°
2026-04-19 07:34 58.05988 65.62875 24870 ft 404 kts 359°
2026-04-19 07:34 58.08794 65.63373 25284 ft 406 kts 359°
2026-04-19 07:34 58.11611 65.63877 25699 ft 408 kts 358°
2026-04-19 07:34 58.14447 65.64387 26130 ft 410 kts 358°
2026-04-19 07:35 58.17293 65.64902 26537 ft 412 kts 358°
2026-04-19 07:35 58.20117 65.65415 26923 ft 414 kts 358°
2026-04-19 07:35 58.22992 65.65940 27317 ft 416 kts 358°
2026-04-19 07:35 58.25881 65.66468 27698 ft 418 kts 358°
2026-04-19 07:36 58.28788 65.66993 28089 ft 420 kts 358°
2026-04-19 07:36 58.31705 65.67518 28487 ft 422 kts 358°
2026-04-19 07:36 58.34639 65.68048 28853 ft 425 kts 358°
2026-04-19 07:36 58.37586 65.68579 29222 ft 427 kts 357°
2026-04-19 07:37 58.40548 65.69113 29636 ft 428 kts 357°
2026-04-19 07:37 58.43517 65.69653 30088 ft 429 kts 357°
2026-04-19 07:37 58.46492 65.70203 30445 ft 430 kts 357°
2026-04-19 07:37 58.49478 65.70761 30759 ft 432 kts 357°
2026-04-19 07:38 58.52470 65.71317 31089 ft 432 kts 357°
2026-04-19 07:38 58.55460 65.71865 31527 ft 431 kts 357°
2026-04-19 07:38 58.58438 65.72405 31965 ft 429 kts 356°
2026-04-19 07:38 58.61405 65.72944 32413 ft 428 kts 356°
2026-04-19 07:39 58.64366 65.73488 32822 ft 427 kts 356°
2026-04-19 07:39 58.67314 65.74031 33161 ft 426 kts 356°
2026-04-19 07:39 58.70243 65.74578 33216 ft 420 kts 356°
2026-04-19 07:40 58.76031 65.75668 33248 ft 417 kts 356°
2026-04-19 07:40 58.81806 65.76732 33220 ft 417 kts 356°
2026-04-19 07:41 58.87582 65.77810 33226 ft 417 kts 356°
2026-04-19 07:41 58.93358 65.78903 33226 ft 417 kts 356°
2026-04-19 07:42 58.99132 65.79990 33266 ft 417 kts 356°
2026-04-19 07:42 59.04907 65.81079 33258 ft 417 kts 356°
2026-04-19 07:43 59.10679 65.82168 33260 ft 416 kts 356°
2026-04-19 07:43 59.16440 65.83266 33245 ft 416 kts 356°
2026-04-19 07:44 59.22209 65.84362 33249 ft 417 kts 356°
2026-04-19 07:44 59.27946 65.85467 33251 ft 417 kts 357°
2026-04-19 07:45 59.33725 65.86585 33268 ft 417 kts 357°
2026-04-19 07:45 59.39500 65.87699 33301 ft 417 kts 357°
2026-04-19 07:46 59.45276 65.88730 33280 ft 416 kts 356°
2026-04-19 07:46 59.51051 65.89662 33273 ft 417 kts 356°
2026-04-19 07:47 59.56831 65.90633 33297 ft 417 kts 356°
2026-04-19 07:47 59.62597 65.91636 33287 ft 416 kts 356°
2026-04-19 07:48 59.68362 65.93442 33282 ft 430 kts
2026-04-19 07:48 59.71161 65.95733 33280 ft 442 kts 19°
2026-04-19 07:48 59.73788 65.99019 33307 ft 452 kts 30°
2026-04-19 07:48 59.76138 66.03241 33159 ft 459 kts 41°
2026-04-19 07:49 59.78244 66.07977 32654 ft 457 kts 42°
2026-04-19 07:49 59.80324 66.12726 32156 ft 454 kts 42°
2026-04-19 07:49 59.82383 66.17460 31658 ft 451 kts 42°
2026-04-19 07:49 59.84427 66.22168 31179 ft 449 kts 41°
2026-04-19 07:50 59.86463 66.26860 30691 ft 447 kts 41°
2026-04-19 07:50 59.88490 66.31523 30219 ft 445 kts 40°
2026-04-19 07:50 59.90507 66.36170 29710 ft 441 kts 40°
2026-04-19 07:50 59.92499 66.40776 29265 ft 436 kts 41°
2026-04-19 07:51 59.94466 66.45341 28827 ft 432 kts 41°
2026-04-19 07:51 59.96413 66.49866 28385 ft 428 kts 41°
2026-04-19 07:51 59.98347 66.54360 27942 ft 425 kts 41°
2026-04-19 07:51 60.00266 66.58830 27515 ft 423 kts 41°
2026-04-19 07:52 60.02171 66.63277 27128 ft 419 kts 41°
2026-04-19 07:52 60.04064 66.67696 26737 ft 417 kts 41°
2026-04-19 07:52 60.05944 66.72090 26339 ft 415 kts 41°
2026-04-19 07:52 60.07814 66.76484 25933 ft 413 kts 41°
2026-04-19 07:53 60.09672 66.80855 25567 ft 412 kts 41°
2026-04-19 07:53 60.11532 66.85238 25106 ft 412 kts 41°
2026-04-19 07:53 60.13382 66.89611 24690 ft 411 kts 41°
2026-04-19 07:53 60.15227 66.93975 24268 ft 410 kts 41°
2026-04-19 07:54 60.17067 66.98335 23827 ft 409 kts 41°
2026-04-19 07:54 60.18899 67.02686 23370 ft 407 kts 42°
2026-04-19 07:54 60.20714 67.07012 22938 ft 403 kts 42°
2026-04-19 07:54 60.22517 67.11311 22494 ft 400 kts 42°
2026-04-19 07:55 60.24303 67.15579 22070 ft 397 kts 42°
2026-04-19 07:55 60.26070 67.19819 21644 ft 394 kts 42°
2026-04-19 07:55 60.27827 67.24040 21218 ft 391 kts 43°
2026-04-19 07:55 60.29569 67.28223 20798 ft 388 kts 43°
2026-04-19 07:56 60.31300 67.32384 20390 ft 386 kts 42°
2026-04-19 07:56 60.33023 67.36526 19932 ft 385 kts 42°
2026-04-19 07:56 60.34736 67.40657 19518 ft 383 kts 42°
2026-04-19 07:56 60.36435 67.44773 19095 ft 381 kts 42°
2026-04-19 07:57 60.38127 67.48884 18684 ft 379 kts 43°
2026-04-19 07:57 60.39807 67.52973 18214 ft 377 kts 43°
2026-04-19 07:57 60.41474 67.57039 17788 ft 373 kts 43°
2026-04-19 07:57 60.43126 67.61064 17373 ft 370 kts 43°
2026-04-19 07:58 60.44762 67.65058 16956 ft 367 kts 44°
2026-04-19 07:58 60.46382 67.69020 16540 ft 364 kts 44°
2026-04-19 07:58 60.47987 67.72958 16123 ft 361 kts 44°
2026-04-19 07:58 60.49575 67.76860 15761 ft 356 kts 45°
2026-04-19 07:59 60.51147 67.80724 15375 ft 353 kts 45°
2026-04-19 07:59 60.52682 67.84500 14996 ft 350 kts 45°
2026-04-19 07:59 60.54210 67.88272 14705 ft 343 kts 45°
2026-04-19 07:59 60.55721 67.92012 14303 ft 341 kts 46°
2026-04-19 08:00 60.57215 67.95712 13823 ft 336 kts 46°
2026-04-19 08:00 60.58684 67.99358 13216 ft 330 kts 46°
2026-04-19 08:00 60.60126 68.02942 12852 ft 325 kts 47°
2026-04-19 08:00 60.61553 68.06492 12458 ft 322 kts 47°
2026-04-19 08:01 60.62967 68.10006 12064 ft 320 kts 47°
2026-04-19 08:01 60.64371 68.13499 11675 ft 317 kts 47°
2026-04-19 08:01 60.65763 68.16973 11289 ft 315 kts 48°
2026-04-19 08:01 60.67141 68.20424 10940 ft 312 kts 48°
2026-04-19 08:02 60.68504 68.23839 10666 ft 306 kts 48°
2026-04-19 08:02 60.69384 68.26049 10574 ft 299 kts 48°
2026-04-19 08:02 60.70666 68.29283 10258 ft 290 kts 49°
2026-04-19 08:02 60.71927 68.32463 9807 ft 286 kts 47°
2026-04-19 08:03 60.73581 68.36639 9168 ft 279 kts 49°
2026-04-19 08:03 60.74400 68.38651 8854 ft 276 kts 45°
2026-04-19 08:03 60.75862 68.41128 8541 ft 271 kts 30°
2026-04-19 08:03 60.77557 68.42758 8185 ft 269 kts 18°
2026-04-19 08:04 60.79309 68.44007 7981 ft 264 kts 18°
2026-04-19 08:04 60.81036 68.45238 7690 ft 264 kts 19°
2026-04-19 08:04 60.82797 68.46493 7162 ft 271 kts 20°
2026-04-19 08:04 60.84577 68.47761 6775 ft 268 kts 20°
2026-04-19 08:05 60.86293 68.48988 6420 ft 255 kts 20°
2026-04-19 08:05 60.87937 68.50171 6089 ft 244 kts 21°
2026-04-19 08:05 60.89502 68.51301 5784 ft 232 kts 21°
2026-04-19 08:05 60.91000 68.52384 5490 ft 226 kts 22°
2026-04-19 08:06 60.92478 68.53456 5203 ft 224 kts 22°
2026-04-19 08:06 60.93957 68.54528 4893 ft 225 kts 21°
2026-04-19 08:06 60.95335 68.55955 4600 ft 220 kts 40°
2026-04-19 08:06 60.96326 68.58301 4321 ft 217 kts 62°
2026-04-19 08:07 60.96841 68.61205 3911 ft 220 kts 76°
2026-04-19 08:07 60.97228 68.64281 3487 ft 219 kts 76°
2026-04-19 08:07 60.97605 68.67272 3122 ft 211 kts 76°
2026-04-19 08:07 60.97964 68.70123 2829 ft 201 kts 76°
2026-04-19 08:08 60.98287 68.72908 2578 ft 200 kts 77°
2026-04-19 08:08 60.98623 68.75669 2311 ft 198 kts 76°
2026-04-19 08:08 60.98962 68.78323 2140 ft 185 kts 75°
2026-04-19 08:08 60.99286 68.80828 2034 ft 177 kts 75°
2026-04-19 08:09 60.99603 68.83279 1917 ft 177 kts 75°
2026-04-19 08:09 60.99915 68.85699 1809 ft 170 kts 75°
2026-04-19 08:09 61.00204 68.87944 1671 ft 154 kts 74°
2026-04-19 08:09 61.00464 68.89963 1544 ft 138 kts 74°
2026-04-19 08:10 61.00701 68.91805 1470 ft 130 kts 74°
2026-04-19 08:10 61.00932 68.93600 1403 ft 129 kts 74°
2026-04-19 08:10 61.01159 68.95371 1270 ft 127 kts 73°
2026-04-19 08:10 61.01387 68.97139 1096 ft 128 kts 73°
2026-04-19 08:11 61.01610 68.98883 917 ft 127 kts 74°
2026-04-19 08:11 61.01836 69.00651 721 ft 127 kts 74°
2026-04-19 08:11 61.02063 69.02433 536 ft 128 kts 74°
2026-04-19 08:11 61.02293 69.04225 356 ft 129 kts 74°
2026-04-19 08:12 61.02525 69.06031 182 ft 130 kts 74°
2026-04-19 08:12 61.02737 69.07673 144 ft 96 kts 75°
2026-04-19 08:12 61.02864 69.08667 147 ft 47 kts 75°
2026-04-19 08:12 61.02907 69.09012 148 ft 10 kts 77°
2026-04-19 08:13 61.02894 69.09133 148 ft 9 kts 130°
2026-04-19 08:13 61.02835 69.09185 146 ft 7 kts 165°
2026-04-19 08:13 61.02785 69.09213 146 ft 7 kts 159°
2026-04-19 08:13 61.02763 69.09279 146 ft 6 kts 114°
2026-04-19 08:14 61.02727 69.09323 146 ft 6 kts 166°
2026-04-19 08:14 61.02677 69.09309 146 ft 3 kts 219°
2026-04-19 08:14 61.02667 69.09262 146 ft 3 kts 255°
2026-04-19 08:15 61.02664 69.09239 146 ft 1 kts 255°
2026-04-19 08:15 61.02664 69.09238 146 ft 0 kts 255°